WMKN

Details ICAO WMKN (TGG)
Name Kuala Terengganu Sultan Mahmud
Region Malaysia (Peninsular Malaysia)
Timezone Asia/Kuala_Lumpur (UTC+8.0)
Plans Departing 28
Arriving 27
Stats Elevation 21 ft / 6 m (AMSL)
Location 5.382638° 103.103361°
Runways 1
Magnetic Variation 0.039° W
Sunrise 2018-06-24 22:58:20 UTC / 2018-06-25 06:58:20 Local
Sunset 2018-06-25 11:24:20 UTC / 2018-06-25 19:24:20 Local
Advertisement - Login to hide

Runways

ID Width Length Bearing (true) Bearing (mag) Surface Threshold Offset Overrun Length
04 150 ft / 46 m 6,580 ft / 2,006 m 44.37° 44.41° Asphalt 0 ft / 0 m 230 ft / 70 m
22 150 ft / 46 m 6,580 ft / 2,006 m 224.37° 224.41° Asphalt 0 ft / 0 m 218 ft / 66 m

Map

Weather


0- 5 10 15 20 25 30 35+ Temperature / ° C

Clouds and Precipitation
Forecast for 2018-06-25 12:00 UTC. Updated 2 hours ago

Ground ~20,000 ft ~40,000 ft Winds

METAR

WMKN 251100Z VRB03KT 9999 FEW010 SCT022 BKN300 30/25 Q1008

TAF

Not found

Frequencies

Ground 121.60 MHz TERENGGANU GND
Tower 123.60 MHz TERENGGANU TWR
Warning: Do not use this data for real-world aviation or navigation. No guarantee of current accuracy is given.